• en France
  • Liste des pays
  • À 7 jours
  • Température de l'eau
  • Carte satellitaire
  • Carte météo
  • Widgets météo
  • user-avatar
    Se connecter

    Météo par heure à Kinshasa

    Ce jour, 18 Janvier, Jeudi

    Heure Température Précipitation Vent Pression Humidité
    00:00 +22°C° 0 mm 0 m/s 706 mmHg 24%
    01:00 +21°C° 0 mm 0 m/s 706 mmHg 25%
    02:00 +21°C° 0 mm 0 m/s 706 mmHg 25%
    03:00 +20°C° 0 mm 0 m/s 706 mmHg 25%
    04:00 +20°C° 0 mm 0 m/s 706 mmHg 26%
    05:00 +22°C° 0 mm 1 m/s 707 mmHg 26%
    06:00 +22°C° 0 mm 1 m/s 707 mmHg 27%
    07:00 +22°C° 0 mm 1 m/s 707 mmHg 28%
    08:00 +26°C° 0 mm 1 m/s 708 mmHg 23%
    09:00 +30°C° 0 mm 1 m/s 708 mmHg 18%
    10:00 +34°C° 0 mm 2 m/s 709 mmHg 13%
    11:00 +35°C° 0 mm 1 m/s 708 mmHg 11%
    12:00 +37°C° 0 mm 1 m/s 708 mmHg 10%
    13:00 +40°C° 0 mm 1 m/s 707 mmHg 9%
    14:00 +39°C° 0 mm 1 m/s 706 mmHg 9%
    15:00 +39°C° 0 mm 1 m/s 706 mmHg 9%
    16:00 +39°C° 0 mm 1 m/s 705 mmHg 9%
    17:00 +35°C° 0 mm 1 m/s 705 mmHg 11%
    18:00 +32°C° 0 mm 1 m/s 705 mmHg 13%
    19:00 +29°C° 0 mm 1 m/s 705 mmHg 15%
    20:00 +28°C° 0 mm 1 m/s 705 mmHg 16%
    21:00 +27°C° 0 mm 1 m/s 706 mmHg 18%
    22:00 +26°C° 0 mm 1 m/s 706 mmHg 19%
    23:00 +26°C° 0 mm 1 m/s 706 mmHg 19%

    Demain, 19 Janvier, Vendredi

    Heure Température Précipitation Vent Pression Humidité
    00:00 +25°C° 0 mm 1 m/s 706 mmHg 20%
    01:00 +24°C° 0 mm 1 m/s 706 mmHg 21%
    02:00 +24°C° 0 mm 1 m/s 706 mmHg 21%
    03:00 +23°C° 0 mm 1 m/s 706 mmHg 21%
    04:00 +23°C° 0 mm 1 m/s 706 mmHg 21%
    05:00 +23°C° 0 mm 1 m/s 706 mmHg 23%
    06:00 +22°C° 0 mm 1 m/s 707 mmHg 26%
    07:00 +22°C° 0 mm 1 m/s 707 mmHg 28%
    08:00 +26°C° 0 mm 1 m/s 708 mmHg 24%
    09:00 +29°C° 0 mm 2 m/s 708 mmHg 20%
    10:00 +34°C° 0 mm 2 m/s 709 mmHg 17%
    11:00 +36°C° 0 mm 2 m/s 708 mmHg 14%
    12:00 +37°C° 0 mm 1 m/s 707 mmHg 11%
    13:00 +40°C° 0 mm 1 m/s 707 mmHg 8%
    14:00 +40°C° 0 mm 1 m/s 706 mmHg 8%
    15:00 +39°C° 0 mm 1 m/s 705 mmHg 8%
    16:00 +39°C° 0 mm 1 m/s 704 mmHg 8%
    17:00 +35°C° 0 mm 1 m/s 705 mmHg 9%
    18:00 +30°C° 0 mm 0 m/s 705 mmHg 11%
    19:00 +27°C° 0 mm 0 m/s 705 mmHg 13%
    20:00 +26°C° 0 mm 0 m/s 705 mmHg 13%
    21:00 +26°C° 0 mm 0 m/s 706 mmHg 14%
    22:00 +27°C° 0 mm 1 m/s 707 mmHg 14%
    23:00 +26°C° 0 mm 1 m/s 706 mmHg 15%

    Après-demain, 20 Janvier, Samedi

    Heure Température Précipitation Vent Pression Humidité
    00:00 +25°C° 0 mm 1 m/s 706 mmHg 16%
    01:00 +24°C° 0 mm 1 m/s 706 mmHg 17%
    02:00 +24°C° 0 mm 1 m/s 706 mmHg 18%
    03:00 +23°C° 0 mm 1 m/s 706 mmHg 20%
    04:00 +22°C° 0 mm 1 m/s 706 mmHg 21%
    05:00 +22°C° 0 mm 1 m/s 706 mmHg 25%
    06:00 +22°C° 0 mm 1 m/s 706 mmHg 30%
    07:00 +22°C° 0 mm 1 m/s 707 mmHg 34%
    08:00 +26°C° 0 mm 1 m/s 708 mmHg 29%
    09:00 +30°C° 0 mm 1 m/s 708 mmHg 24%
    10:00 +33°C° 0 mm 1 m/s 709 mmHg 19%
    11:00 +36°C° 0 mm 1 m/s 708 mmHg 15%
    12:00 +39°C° 0 mm 1 m/s 707 mmHg 12%
    13:00 +42°C° 0 mm 1 m/s 707 mmHg 8%
    14:00 +38°C° 0 mm 0 m/s 706 mmHg 8%
    15:00 +37°C° 0 mm 0 m/s 705 mmHg 8%
    16:00 +37°C° 0 mm 0 m/s 704 mmHg 8%
    17:00 +34°C° 0 mm 0 m/s 704 mmHg 10%
    18:00 +33°C° 0 mm 1 m/s 704 mmHg 12%
    19:00 +30°C° 0 mm 1 m/s 705 mmHg 13%
    20:00 +29°C° 0 mm 1 m/s 705 mmHg 14%
    21:00 +28°C° 0 mm 1 m/s 706 mmHg 14%
    22:00 +27°C° 0 mm 1 m/s 706 mmHg 15%
    23:00 +27°C° 0 mm 1 m/s 706 mmHg 16%

    21 Janvier, Dimanche

    Heure Température Précipitation Vent Pression Humidité
    00:00 +26°C° 0 mm 1 m/s 706 mmHg 17%
    01:00 +25°C° 0 mm 1 m/s 706 mmHg 18%
    02:00 +25°C° 0 mm 1 m/s 706 mmHg 21%
    03:00 +24°C° 0 mm 1 m/s 706 mmHg 24%
    04:00 +23°C° 0 mm 1 m/s 706 mmHg 27%
    05:00 +23°C° 0 mm 1 m/s 706 mmHg 31%
    06:00 +23°C° 0 mm 1 m/s 707 mmHg 36%
    07:00 +23°C° 0 mm 1 m/s 707 mmHg 41%
    08:00 +26°C° 0 mm 1 m/s 708 mmHg 37%
    09:00 +29°C° 0 mm 2 m/s 708 mmHg 32%
    10:00 +34°C° 0 mm 2 m/s 709 mmHg 28%
    11:00 +36°C° 0 mm 2 m/s 708 mmHg 22%
    12:00 +37°C° 0 mm 1 m/s 707 mmHg 17%
    13:00 +40°C° 0 mm 1 m/s 706 mmHg 11%
    14:00 +40°C° 0 mm 1 m/s 706 mmHg 11%
    15:00 +40°C° 0 mm 1 m/s 705 mmHg 10%
    16:00 +39°C° 0 mm 1 m/s 704 mmHg 10%
    17:00 +35°C° 0 mm 1 m/s 704 mmHg 12%
    18:00 +33°C° 0 mm 1 m/s 704 mmHg 14%
    19:00 +30°C° 0 mm 1 m/s 705 mmHg 16%
    20:00 +29°C° 0 mm 1 m/s 705 mmHg 17%
    21:00 +28°C° 0 mm 1 m/s 706 mmHg 18%
    22:00 +27°C° 0 mm 1 m/s 706 mmHg 19%
    23:00 +26°C° 0 mm 1 m/s 706 mmHg 23%

    22 Janvier, Lundi

    Heure Température Précipitation Vent Pression Humidité
    00:00 +23°C° 0 mm 0 m/s 706 mmHg 27%
    01:00 +22°C° 0 mm 0 m/s 705 mmHg 30%
    02:00 +22°C° 0 mm 0 m/s 705 mmHg 31%
    03:00 +22°C° 0 mm 0 m/s 705 mmHg 31%
    04:00 +21°C° 0 mm 0 m/s 706 mmHg 32%
    05:00 +21°C° 0 mm 0 m/s 706 mmHg 34%
    06:00 +24°C° 0 mm 1 m/s 707 mmHg 36%
    07:00 +24°C° 0 mm 1 m/s 707 mmHg 38%
    08:00 +27°C° 0 mm 1 m/s 707 mmHg 35%
    09:00 +30°C° 0 mm 1 m/s 708 mmHg 31%
    10:00 +34°C° 0 mm 1 m/s 708 mmHg 27%
    11:00 +36°C° 0 mm 1 m/s 708 mmHg 22%
    12:00 +39°C° 0 mm 1 m/s 707 mmHg 18%
    13:00 +41°C° 0 mm 1 m/s 706 mmHg 13%
    14:00 +40°C° 0 mm 1 m/s 706 mmHg 13%
    15:00 +40°C° 0 mm 1 m/s 705 mmHg 12%
    16:00 +39°C° 0 mm 1 m/s 704 mmHg 12%
    17:00 +35°C° 0 mm 1 m/s 704 mmHg 14%
    18:00 +33°C° 0 mm 1 m/s 704 mmHg 17%
    19:00 +28°C° 0 mm 0 m/s 704 mmHg 20%
    20:00 +27°C° 0 mm 0 m/s 705 mmHg 25%
    21:00 +26°C° 0 mm 0 m/s 705 mmHg 31%
    22:00 +25°C° 0 mm 0 m/s 706 mmHg 36%
    23:00 +24°C° 0 mm 0 m/s 706 mmHg 37%

    23 Janvier, Mardi

    Heure Température Précipitation Vent Pression Humidité
    00:00 +26°C° 0 mm 1 m/s 705 mmHg 38%
    01:00 +25°C° 0 mm 1 m/s 705 mmHg 40%
    02:00 +25°C° 0 mm 1 m/s 705 mmHg 41%
    03:00 +24°C° 0 mm 1 m/s 705 mmHg 42%
    04:00 +24°C° 0 mm 1 m/s 705 mmHg 43%
    05:00 +24°C° 0 mm 1 m/s 706 mmHg 45%
    06:00 +24°C° 0 mm 1 m/s 706 mmHg 46%
    07:00 +24°C° 0 mm 1 m/s 707 mmHg 48%
    08:00 +27°C° 0 mm 1 m/s 707 mmHg 41%
    09:00 +30°C° 0 mm 1 m/s 708 mmHg 34%
    10:00 +34°C° 0 mm 1 m/s 708 mmHg 28%
    11:00 +35°C° 0 mm 1 m/s 707 mmHg 23%
    12:00 +37°C° 0 mm 1 m/s 707 mmHg 17%
    13:00 +39°C° 0 mm 1 m/s 706 mmHg 12%
    14:00 +39°C° 0 mm 1 m/s 705 mmHg 11%
    15:00 +39°C° 0 mm 1 m/s 705 mmHg 10%
    16:00 +39°C° 0 mm 2 m/s 704 mmHg 9%
    17:00 +35°C° 0 mm 1 m/s 704 mmHg 10%
    18:00 +32°C° 0 mm 1 m/s 704 mmHg 11%
    19:00 +27°C° 0 mm 0 m/s 704 mmHg 13%
    20:00 +28°C° 0 mm 1 m/s 705 mmHg 14%
    21:00 +27°C° 0 mm 1 m/s 705 mmHg 15%
    22:00 +27°C° 0 mm 1 m/s 705 mmHg 17%
    23:00 +26°C° 0 mm 1 m/s 705 mmHg 20%
    Voir plus